Time,TemperatureF,DewpointF,PressureIn,WindDirection,WindDirectionDegrees,WindSpeedMPH,WindSpeedGustMPH,Humidity,HourlyPrecipIn,Conditions,Clouds,dailyrainin,SoftwareType,DateUTC
2013-08-23 00:00:00,81.3,76.0,30.06,ESE,110,0.0,4.0,84,0.00,,,0.00,weatherlink.com 1.10,2013-08-23 04:00:00,
2013-08-23 00:15:00,81.2,76.0,30.07,East,79,1.0,3.0,85,0.00,,,0.00,weatherlink.com 1.10,2013-08-23 04:15:00,
2013-08-23 00:30:00,81.6,77.0,30.07,East,94,0.0,4.0,86,0.00,,,0.00,weatherlink.com 1.10,2013-08-23 04:30:00,
2013-08-23 00:45:00,82.0,78.0,30.06,ESE,110,1.0,7.0,86,0.00,,,0.00,weatherlink.com 1.10,2013-08-23 04:45:00,
2013-08-23 01:00:00,81.9,77.0,30.06,ESE,109,3.0,6.0,86,0.00,,,0.00,weatherlink.com 1.10,2013-08-23 05:00:00,
2013-08-23 01:15:00,81.8,77.0,30.05,SE,145,2.0,5.0,86,0.00,,,0.00,weatherlink.com 1.10,2013-08-23 05:15:00,
2013-08-23 01:30:00,81.8,77.0,30.05,ESE,108,1.0,6.0,85,0.00,,,0.00,weatherlink.com 1.10,2013-08-23 05:30:00,
2013-08-23 01:45:00,81.7,77.0,30.05,ESE,112,1.0,3.0,86,0.00,,,0.00,weatherlink.com 1.10,2013-08-23 05:45:00,
2013-08-23 02:01:00,81.6,77.0,30.04,ESE,108,1.0,2.0,87,0.00,,,0.00,weatherlink.com 1.10,2013-08-23 06:01:00,
2013-08-23 02:16:00,81.9,78.0,30.03,ESE,105,4.0,7.0,87,0.00,,,0.00,weatherlink.com 1.10,2013-08-23 06:16:00,
2013-08-23 02:31:00,82.1,77.0,30.02,East,89,3.0,7.0,85,0.00,,,0.00,weatherlink.com 1.10,2013-08-23 06:31:00,
2013-08-23 02:46:00,82.0,77.0,30.02,ESE,111,4.0,7.0,84,0.00,,,0.00,weatherlink.com 1.10,2013-08-23 06:46:00,
2013-08-23 03:01:00,82.0,76.0,30.01,East,82,5.0,6.0,83,0.00,,,0.00,weatherlink.com 1.10,2013-08-23 07:01:00,
2013-08-23 03:16:00,81.9,76.0,30.01,ESE,107,2.0,5.0,82,0.00,,,0.00,weatherlink.com 1.10,2013-08-23 07:16:00,
2013-08-23 03:31:00,81.7,75.0,30.00,ESE,105,3.0,7.0,81,0.00,,,0.00,weatherlink.com 1.10,2013-08-23 07:31:00,
2013-08-23 03:46:00,81.7,75.0,30.00,ESE,103,4.0,5.0,81,0.00,,,0.00,weatherlink.com 1.10,2013-08-23 07:46:00,
2013-08-23 04:01:00,81.6,76.0,30.00,SE,141,3.0,5.0,82,0.00,,,0.00,weatherlink.com 1.10,2013-08-23 08:01:00,
2013-08-23 04:16:00,81.5,76.0,30.00,East,92,4.0,5.0,83,0.00,,,0.00,weatherlink.com 1.10,2013-08-23 08:16:00,
2013-08-23 04:31:00,81.6,76.0,30.00,ESE,102,3.0,6.0,84,0.00,,,0.00,weatherlink.com 1.10,2013-08-23 08:31:00,
2013-08-23 04:46:00,81.5,77.0,30.00,ESE,117,3.0,4.0,85,0.00,,,0.00,weatherlink.com 1.10,2013-08-23 08:46:00,
2013-08-23 05:01:00,81.6,76.0,30.00,ESE,104,1.0,5.0,84,0.00,,,0.00,weatherlink.com 1.10,2013-08-23 09:01:00,
2013-08-23 05:16:00,81.3,77.0,30.00,SE,128,2.0,4.0,85,0.00,,,0.00,weatherlink.com 1.10,2013-08-23 09:16:00,
2013-08-23 05:31:00,81.5,77.0,30.00,East,98,3.0,7.0,85,0.00,,,0.00,weatherlink.com 1.10,2013-08-23 09:31:00,
2013-08-23 05:46:00,81.6,76.0,30.00,East,96,4.0,5.0,84,0.00,,,0.00,weatherlink.com 1.10,2013-08-23 09:46:00,
2013-08-23 06:01:00,81.5,77.0,30.00,ESE,112,2.0,4.0,85,0.00,,,0.00,weatherlink.com 1.10,2013-08-23 10:01:00,
2013-08-23 06:16:00,81.4,76.0,30.00,SE,131,2.0,5.0,83,0.00,,,0.00,weatherlink.com 1.10,2013-08-23 10:16:00,
2013-08-23 06:31:00,81.2,76.0,30.00,ESE,103,3.0,3.0,83,0.00,,,0.00,weatherlink.com 1.10,2013-08-23 10:31:00,
2013-08-23 06:46:00,81.2,76.0,30.01,ESE,110,1.0,4.0,84,0.00,,,0.00,weatherlink.com 1.10,2013-08-23 10:46:00,
2013-08-23 07:01:00,81.3,77.0,30.01,East,93,3.0,5.0,85,0.00,,,0.00,weatherlink.com 1.10,2013-08-23 11:01:00,
2013-08-23 07:16:00,81.4,77.0,30.01,ESE,113,0.0,2.0,86,0.00,,,0.00,weatherlink.com 1.10,2013-08-23 11:16:00,
2013-08-23 07:31:00,82.1,77.0,30.02,East,80,0.0,0.0,85,0.00,,,0.00,weatherlink.com 1.10,2013-08-23 11:31:00,
2013-08-23 07:46:00,82.5,77.0,30.02,East,101,2.0,4.0,84,0.00,,,0.00,weatherlink.com 1.10,2013-08-23 11:46:00,
2013-08-23 08:01:00,83.3,78.0,30.03,East,81,2.0,3.0,83,0.00,,,0.00,weatherlink.com 1.10,2013-08-23 12:01:00,
2013-08-23 08:16:00,82.9,78.0,30.03,East,91,4.0,5.0,84,0.00,,,0.00,weatherlink.com 1.10,2013-08-23 12:16:00,
2013-08-23 08:31:00,79.1,77.0,30.04,NNE,15,2.0,16.0,94,0.10,,,0.10,weatherlink.com 1.10,2013-08-23 12:31:00,
2013-08-23 08:46:00,78.9,78.0,30.04,East,94,0.0,0.0,97,0.10,,,0.10,weatherlink.com 1.10,2013-08-23 12:46:00,
2013-08-23 09:01:00,79.4,79.0,30.04,SE,125,0.0,4.0,97,0.10,,,0.10,weatherlink.com 1.10,2013-08-23 13:01:00,
2013-08-23 09:16:00,79.7,78.0,30.04,ESE,106,4.0,6.0,95,0.10,,,0.10,weatherlink.com 1.10,2013-08-23 13:16:00,
2013-08-23 09:31:00,81.2,79.0,30.05,ESE,102,5.0,7.0,93,0.00,,,0.10,weatherlink.com 1.10,2013-08-23 13:31:00,
2013-08-23 09:46:00,84.1,78.0,30.05,East,93,3.0,7.0,81,0.00,,,0.10,weatherlink.com 1.10,2013-08-23 13:46:00,
2013-08-23 10:01:00,84.8,78.0,30.05,East,96,7.0,7.0,80,0.00,,,0.10,weatherlink.com 1.10,2013-08-23 14:01:00,
2013-08-23 10:16:00,85.0,78.0,30.05,East,101,3.0,6.0,80,0.00,,,0.10,weatherlink.com 1.10,2013-08-23 14:16:00,
2013-08-23 10:31:00,85.3,77.0,30.06,East,82,5.0,9.0,76,0.00,,,0.10,weatherlink.com 1.10,2013-08-23 14:31:00,
2013-08-23 10:46:00,85.5,78.0,30.06,East,82,5.0,8.0,79,0.00,,,0.10,weatherlink.com 1.10,2013-08-23 14:46:00,
2013-08-23 11:01:00,85.5,78.0,30.06,East,82,4.0,9.0,77,0.00,,,0.10,weatherlink.com 1.10,2013-08-23 15:01:00,
2013-08-23 11:16:00,85.2,78.0,30.06,ENE,65,5.0,9.0,79,0.00,,,0.10,weatherlink.com 1.10,2013-08-23 15:16:00,
2013-08-23 11:31:00,85.4,78.0,30.06,ENE,64,3.0,10.0,78,0.00,,,0.10,weatherlink.com 1.10,2013-08-23 15:31:00,
2013-08-23 11:46:00,85.9,78.0,30.06,East,90,10.0,10.0,78,0.00,,,0.10,weatherlink.com 1.10,2013-08-23 15:46:00,
2013-08-23 12:01:00,85.9,78.0,30.06,ENE,68,6.0,10.0,78,0.00,,,0.10,weatherlink.com 1.10,2013-08-23 16:01:00,
2013-08-23 12:16:00,85.8,77.0,30.06,ENE,77,7.0,9.0,76,0.00,,,0.10,weatherlink.com 1.10,2013-08-23 16:16:00,
2013-08-23 12:31:00,85.5,78.0,30.05,ESE,105,11.0,11.0,78,0.00,,,0.10,weatherlink.com 1.10,2013-08-23 16:31:00,
2013-08-23 12:46:00,85.6,78.0,30.06,NE,56,9.0,12.0,77,0.00,,,0.10,weatherlink.com 1.10,2013-08-23 16:46:00,
2013-08-23 13:01:00,86.0,78.0,30.06,ENE,78,6.0,11.0,76,0.00,,,0.10,weatherlink.com 1.10,2013-08-23 17:01:00,
2013-08-23 13:16:00,85.9,79.0,30.05,East,84,11.0,12.0,79,0.00,,,0.10,weatherlink.com 1.10,2013-08-23 17:16:00,
2013-08-23 13:31:00,85.8,79.0,30.05,East,92,13.0,13.0,79,0.00,,,0.10,weatherlink.com 1.10,2013-08-23 17:31:00,
2013-08-23 13:46:00,85.7,78.0,30.04,East,96,9.0,12.0,78,0.00,,,0.10,weatherlink.com 1.10,2013-08-23 17:46:00,
2013-08-23 14:02:00,86.3,78.0,30.04,ENE,70,7.0,11.0,77,0.00,,,0.10,weatherlink.com 1.10,2013-08-23 18:02:00,
2013-08-23 14:17:00,86.0,78.0,30.03,ENE,77,8.0,13.0,76,0.00,,,0.10,weatherlink.com 1.10,2013-08-23 18:17:00,
2013-08-23 14:32:00,85.8,77.0,30.03,ENE,62,10.0,15.0,74,0.00,,,0.10,weatherlink.com 1.10,2013-08-23 18:32:00,
2013-08-23 14:47:00,85.8,78.0,30.03,East,83,13.0,13.0,77,0.00,,,0.10,weatherlink.com 1.10,2013-08-23 18:47:00,
2013-08-23 15:02:00,85.3,78.0,30.03,ENE,75,8.0,13.0,79,0.00,,,0.10,weatherlink.com 1.10,2013-08-23 19:02:00,
2013-08-23 15:17:00,85.6,77.0,30.03,East,96,9.0,15.0,76,0.00,,,0.10,weatherlink.com 1.10,2013-08-23 19:17:00,
2013-08-23 15:32:00,85.4,78.0,30.02,ESE,123,8.0,12.0,79,0.00,,,0.10,weatherlink.com 1.10,2013-08-23 19:32:00,
2013-08-23 15:47:00,84.7,79.0,30.02,ENE,71,9.0,12.0,83,0.00,,,0.10,weatherlink.com 1.10,2013-08-23 19:47:00,
2013-08-23 16:02:00,85.1,78.0,30.02,ENE,77,10.0,12.0,80,0.00,,,0.10,weatherlink.com 1.10,2013-08-23 20:02:00,
2013-08-23 16:17:00,84.4,77.0,30.01,SSE,158,8.0,13.0,79,0.00,,,0.10,weatherlink.com 1.10,2013-08-23 20:17:00,
2013-08-23 16:32:00,84.3,78.0,30.02,SE,128,11.0,12.0,81,0.00,,,0.10,weatherlink.com 1.10,2013-08-23 20:32:00,
2013-08-23 16:47:00,83.4,77.0,30.02,SE,145,9.0,13.0,81,0.00,,,0.10,weatherlink.com 1.10,2013-08-23 20:47:00,
2013-08-23 17:02:00,83.1,77.0,30.02,ESE,113,5.0,9.0,81,0.00,,,0.10,weatherlink.com 1.10,2013-08-23 21:02:00,
2013-08-23 17:17:00,82.8,78.0,30.02,East,82,6.0,11.0,84,0.00,,,0.10,weatherlink.com 1.10,2013-08-23 21:17:00,
2013-08-23 17:32:00,82.7,76.0,30.02,ESE,108,7.0,10.0,81,0.00,,,0.10,weatherlink.com 1.10,2013-08-23 21:32:00,
2013-08-23 17:47:00,82.9,75.0,30.02,SSE,148,3.0,9.0,78,0.00,,,0.10,weatherlink.com 1.10,2013-08-23 21:47:00,
2013-08-23 18:02:00,83.3,76.0,30.02,SE,138,4.0,10.0,78,0.00,,,0.10,weatherlink.com 1.10,2013-08-23 22:02:00,
2013-08-23 18:17:00,83.4,75.0,30.02,SE,136,2.0,5.0,76,0.00,,,0.10,weatherlink.com 1.10,2013-08-23 22:17:00,
2013-08-23 18:32:00,83.4,75.0,30.02,SSE,148,3.0,7.0,75,0.00,,,0.10,weatherlink.com 1.10,2013-08-23 22:32:00,
2013-08-23 19:02:00,83.4,77.0,30.03,East,94,6.0,8.0,80,0.00,,,0.10,weatherlink.com 1.10,2013-08-23 23:02:00,
2013-08-23 19:17:00,83.2,77.0,30.04,SE,143,4.0,6.0,81,0.00,,,0.10,weatherlink.com 1.10,2013-08-23 23:17:00,
2013-08-23 19:32:00,82.9,77.0,30.04,ESE,109,4.0,7.0,82,0.00,,,0.10,weatherlink.com 1.10,2013-08-23 23:32:00,
2013-08-23 19:47:00,82.6,77.0,30.03,SE,137,2.0,4.0,82,0.00,,,0.10,weatherlink.com 1.10,2013-08-23 23:47:00,
2013-08-23 20:02:00,82.5,77.0,30.03,SE,128,3.0,5.0,83,0.00,,,0.10,weatherlink.com 1.10,2013-08-24 00:02:00,
2013-08-23 20:17:00,82.5,77.0,30.04,East,101,3.0,6.0,83,0.00,,,0.10,weatherlink.com 1.10,2013-08-24 00:17:00,
2013-08-23 20:32:00,82.4,77.0,30.04,East,87,2.0,4.0,84,0.00,,,0.10,weatherlink.com 1.10,2013-08-24 00:32:00,
2013-08-23 20:47:00,82.4,78.0,30.05,ESE,104,3.0,4.0,85,0.00,,,0.10,weatherlink.com 1.10,2013-08-24 00:47:00,
2013-08-23 21:02:00,82.2,78.0,30.05,ESE,108,2.0,3.0,86,0.00,,,0.10,weatherlink.com 1.10,2013-08-24 01:02:00,
2013-08-23 21:17:00,82.2,77.0,30.06,East,89,5.0,7.0,85,0.00,,,0.10,weatherlink.com 1.10,2013-08-24 01:17:00,
2013-08-23 21:32:00,82.5,78.0,30.06,East,94,4.0,6.0,85,0.00,,,0.10,weatherlink.com 1.10,2013-08-24 01:32:00,
2013-08-23 21:47:00,82.5,77.0,30.07,East,89,2.0,6.0,84,0.00,,,0.10,weatherlink.com 1.10,2013-08-24 01:47:00,
2013-08-23 22:02:00,82.2,77.0,30.08,ESE,103,2.0,2.0,85,0.00,,,0.10,weatherlink.com 1.10,2013-08-24 02:02:00,
2013-08-23 22:17:00,82.3,77.0,30.08,ENE,72,3.0,4.0,85,0.00,,,0.10,weatherlink.com 1.10,2013-08-24 02:17:00,
2013-08-23 22:32:00,82.5,78.0,30.07,ESE,123,3.0,5.0,85,0.00,,,0.10,weatherlink.com 1.10,2013-08-24 02:32:00,
2013-08-23 22:47:00,82.5,77.0,30.07,East,85,6.0,8.0,82,0.00,,,0.10,weatherlink.com 1.10,2013-08-24 02:47:00,
2013-08-23 23:02:00,81.4,76.0,30.07,East,99,5.0,8.0,83,0.00,,,0.10,weatherlink.com 1.10,2013-08-24 03:02:00,
2013-08-23 23:17:00,81.2,76.0,30.07,ENE,78,2.0,5.0,84,0.00,,,0.10,weatherlink.com 1.10,2013-08-24 03:17:00,
2013-08-23 23:32:00,81.4,76.0,30.07,ESE,103,0.0,3.0,84,0.00,,,0.10,weatherlink.com 1.10,2013-08-24 03:32:00,
2013-08-23 23:47:00,81.7,77.0,30.07,East,98,2.0,4.0,84,0.00,,,0.10,weatherlink.com 1.10,2013-08-24 03:47:00,